Location: Newark
(48.8833°N, 0.9236°W)
Time: 22:24:48
(UTC+00:00)

Transit 4A - Pass Details

Date: 29 November 2019
Orbit: 870 x 975 km, 66.8° (Epoch: 11 December)

Event Time Altitude Azimuth Distance (km) Brightness Sun altitude
Exits shadow 05:10:59 40° 237° (WSW) 1,271 8.2 -22.6°
Drops below altitude 10° 05:15:59 10° 178° (S) 2,510 10.3 -21.7°
Sets 05:18:34 0° 171° (S) 3,443 11.1 -21.3°
